Regional Weather Roundup
Issued by NWS

Home | Current Version | Previous Version | Graphics & Text | Print | Product List | Glossary On
Versions: 1 2 3 4 5 6 7 8 9 10 11 12 13 14 15 16 17 18 19 20 21 22 23 24 25 26 27 28 29 30 31 32 33 34 35 36 37 38 39 40 41 42 43 44 45 46 47 48 49 50
000
ASUS43 KLMK 241202
RWRKY
KENTUCKY REGIONAL WEATHER ROUNDUP
NATIONAL WEATHER SERVICE LOUISVILLE KY
800 AM EDT SUN SEP 24 2017

NOTE "FAIR" INDICATES FEW OR NO CLOUDS BELOW 12,000 FEET
WITH NO SIGNIFICANT WEATHER AND/OR OBSTRUCTIONS TO VISIBILITY.

KYZ001>023-026-027-061>063-070>075-241300-
WESTERN AND SOUTH CENTRAL KENTUCKY

CITY           SKY/WX    TMP DP  RH WIND       PRES   REMARKS
PADUCAH        CLEAR     67  64  90 CALM      30.03S FOG
HENDERSON      CLEAR     61  60  97 CALM      30.06S FOG
OWENSBORO      CLEAR     67  65  93 NE3       30.07R
HOPKINSVILLE   CLEAR     68  66  92 E3        30.05R
BOWLING GREEN  CLEAR     64  64 100 CALM      30.07R FOG
GLASGOW        CLEAR    N/A N/A N/A E3        30.08S FOG
$$

KYZ024-025-028>034-038-045-046-053-241300-
NORTH CENTRAL KENTUCKY

CITY           SKY/WX    TMP DP  RH WIND       PRES   REMARKS
LOUISVILLE/SDF PTCLDY    69  65  86 CALM      30.08R FOG
LOUISVILLE/LOU CLEAR     65  65 100 NW6       30.09R
FORT KNOX      NOT AVBL
$$

KYZ035>037-039>044-047>052-055>060-089>105-241300-
NORTHEAST KENTUCKY

CITY           SKY/WX    TMP DP  RH WIND       PRES   REMARKS
LEXINGTON      CLEAR     65  60  84 E3        30.11R
COVINGTON      CLEAR     67  62  84 E6        30.11S
FRANKFORT      PTCLDY    63  59  87 CALM      30.09R
$$

KYZ054-064>069-076>088-106>120-241300-
SOUTHEAST KENTUCKY

CITY           SKY/WX    TMP DP  RH WIND       PRES   REMARKS
JACKSON        CLEAR     66  59  78 CALM      30.14R
LONDON         CLEAR     61  59  93 CALM      30.12R
SOMERSET       NOT AVBL
MIDDLESBORO    CLEAR     60  60 100 CALM      30.15R
MONTICELLO     SUNNY     62  61  96 VRB5      30.12R
$$





USA.gov is the U.S. government's official web portal to all federal, state and local government web resources and services.